#datint,netname,site,siteID,timestamp,IntT,BattV,AirT2,AirT,AirT_Avg,AirT_Max,AirT_Min,RH_Avg,RH_Max,RH_Min,EA_Avg,Td_Avg,Td_Max,Td_Min,WindS_Smp,WindS_Avg,WindD_Avg,WindD_SD,WindS_Max,ETo,ETr,SoilT4,SoilT8,SoilVWC8,SolarW_Avg,wetstate_Avg,wetT_Avg,Precip_accum,Precip_WPG,Precip_TB
15min,AgWx,beryljct,423,28APR2020:00:00:00,59.9,12.94,54.8,53.9,53.8,55.7,52.4,46,49,41,0.644,33.3,34.0,32.1,4.275,3.9,123,30,7.4,0.00013,0.00021,58.8,56.1,19,0,.,.,12.56,0.00,0.00
15min,AgWx,beryljct,423,28APR2020:00:15:00,57.7,12.94,52.3,52.0,53.8,55.6,51.9,45,48,40,0.627,32.8,33.5,31.8,3.617,4.5,174,18,6.9,0.00018,0.00028,58.6,56.1,19,0,.,.,12.56,0.00,0.00
15min,AgWx,beryljct,423,28APR2020:00:30:00,56.1,12.93,54.7,56.5,54.1,56.9,52.0,41,47,35,0.568,31.2,32.6,29.8,4.099,3.3,358,84,8.3,0.00010,0.00017,58.4,56.1,19,0,.,.,12.56,0.00,0.00
15min,AgWx,beryljct,423,28APR2020:00:45:00,55.0,12.91,54.4,53.5,52.0,56.3,49.8,46,52,37,0.588,31.9,32.8,30.4,4.209,3.2,301,44,6.1,0.00006,0.00012,58.2,56.1,19,0,.,.,12.56,0.01,0.00
15min,AgWx,beryljct,423,28APR2020:01:00:00,53.8,12.9,51.8,52.6,51.0,53.6,49.0,50,56,42,0.604,32.7,33.9,31.0,3.968,4.3,230,30,5.3,0.00013,0.00020,58.0,56.1,19,0,.,.,12.56,0.00,0.00
15min,AgWx,beryljct,423,28APR2020:01:15:00,53.1,12.91,58.3,56.2,54.4,56.3,52.2,42,45,39,0.597,31.6,32.3,30.9,3.288,2.8,185,44,8.4,0.00005,0.00011,57.8,56.1,19,0,.,.,12.56,0.00,0.00
15min,AgWx,beryljct,423,28APR2020:01:30:00,53.4,12.89,52.5,53.6,55.5,58.8,52.5,40,47,33,0.603,31.4,33.2,29.7,8.05,5.8,70,43,11.9,0.00032,0.00046,57.6,56.0,19,0,.,.,12.56,0.00,0.00
15min,AgWx,beryljct,423,28APR2020:01:45:00,53.4,12.89,51.6,52.4,52.4,53.8,50.4,46,51,43,0.635,32.5,33.1,31.7,5.064,6.1,357,33,8.2,0.00027,0.00037,57.4,56.0,19,0,.,.,12.56,0.00,0.00
15min,AgWx,beryljct,423,28APR2020:02:00:00,52.9,12.89,51.8,51.8,51.4,52.3,50.7,50,52,48,0.648,33.4,33.8,33.0,4.472,5.5,293,9.7,7.4,0.00020,0.00029,57.2,56.0,19,0,.,.,12.56,0.00,0.00
15min,AgWx,beryljct,423,28APR2020:02:15:00,52.7,12.87,53.3,53.1,52.3,53.2,51.6,48,49,45,0.625,33.1,33.4,32.4,7.366,7.3,329,21,11.0,0.00031,0.00042,57.0,55.9,18,0,.,.,12.56,0.00,0.00
15min,AgWx,beryljct,423,28APR2020:02:30:00,52.4,12.86,55.4,54.0,51.8,54.0,50.6,49,52,44,0.620,33.2,33.7,32.4,5.722,5.3,302,8.2,7.7,0.00020,0.00029,56.9,55.9,19,0,.,.,12.56,0.00,0.00
15min,AgWx,beryljct,423,28APR2020:02:45:00,52.3,12.87,45.5,47.9,53.6,55.0,47.9,45,57,42,0.647,32.5,33.4,32.1,5.941,4.5,305,38,6.6,0.00018,0.00028,56.7,55.8,19,0,.,.,12.56,0.00,0.00
15min,AgWx,beryljct,423,28APR2020:03:00:00,51.3,12.86,45.4,44.4,46.8,48.2,44.1,61,68,57,0.673,34.0,34.9,33.2,3.266,3.4,125,16,5.9,0.00001,0.00004,56.5,55.8,19,0,.,.,12.57,0.00,0.00
15min,AgWx,beryljct,423,28APR2020:03:15:00,49.6,12.85,43.8,43.9,43.9,44.9,42.9,69,73,65,0.651,34.4,35.4,33.5,0,3.8,91,18,6.4,-0.00002,0.00000,56.3,55.8,18,0,.,.,12.57,0.00,0.00
15min,AgWx,beryljct,423,28APR2020:03:30:00,48.0,12.85,46.6,46.1,44.7,46.1,43.4,66,70,62,0.653,34.1,34.6,33.7,0.526,0.9,285,57,2.1,-0.00021,-0.00030,56.2,55.7,19,0,.,.,12.57,0.00,0.00
15min,AgWx,beryljct,423,28APR2020:03:45:00,47.0,12.84,41.3,43.8,46.0,47.0,43.8,61,65,58,0.628,33.3,34.0,32.4,0,1.2,293,15,2.8,-0.00017,-0.00023,56.0,55.7,19,0,.,.,12.57,0.00,0.00
15min,AgWx,beryljct,423,28APR2020:04:00:00,46.1,12.84,42.5,43.4,43.5,46.3,41.7,68,74,60,0.641,33.6,34.8,32.0,2.477,1.1,131,45,3.6,-0.00019,-0.00027,55.9,55.6,19,0,.,.,12.57,0.00,0.00
15min,AgWx,beryljct,423,28APR2020:04:15:00,45.1,12.82,42.0,41.6,41.0,43.4,40.2,75,78,67,0.657,33.7,34.6,32.4,4.516,2.2,148,4.8,4.5,-0.00012,-0.00014,55.7,55.6,19,0,.,.,12.57,0.00,0.00
15min,AgWx,beryljct,423,28APR2020:04:30:00,44.1,12.81,40.4,41.1,40.7,41.7,40.0,76,79,72,0.643,33.7,34.8,32.7,3.705,3.8,181,24,4.7,-0.00005,-0.00005,55.5,55.5,18,0,.,.,12.57,0.00,0.00
15min,AgWx,beryljct,423,28APR2020:04:45:00,43.4,12.82,39.9,40.3,40.9,41.5,40.2,74,76,73,0.643,33.2,33.7,32.4,2.083,2.9,184,8.8,4.0,-0.00008,-0.00008,55.3,55.5,18,0,.,.,12.57,0.00,0.00
15min,AgWx,beryljct,423,28APR2020:05:00:00,42.9,12.81,44.2,44.6,41.3,44.9,39.3,73,79,61,0.615,33.2,34.8,30.6,0.745,2.1,207,38,4.6,-0.00012,-0.00014,55.1,55.4,19,0,.,.,12.58,0.00,0.00
15min,AgWx,beryljct,423,28APR2020:05:15:00,42.9,12.8,40.7,41.0,44.0,46.9,41.0,62,69,56,0.604,31.9,32.7,31.0,4.187,1.5,264,79,4.5,-0.00015,-0.00019,55.0,55.3,18,0,.,.,12.58,0.00,0.00
15min,AgWx,beryljct,423,28APR2020:05:30:00,42.7,12.79,38.9,39.8,41.1,42.0,39.8,70,71,67,0.592,31.9,32.7,31.2,3.464,4.1,323,7.4,4.8,-0.00001,0.00001,54.8,55.3,19,0,.,.,12.58,0.00,0.00
15min,AgWx,beryljct,423,28APR2020:05:45:00,42.3,12.8,39.0,38.6,39.4,40.6,38.1,73,78,70,0.621,31.6,32.5,31.0,3.223,2.3,330,44,3.7,-0.00011,-0.00012,54.6,55.3,19,0,.,.,12.58,0.00,0.00
15min,AgWx,beryljct,423,28APR2020:06:00:00,41.5,12.79,37.5,36.8,38.0,39.3,36.7,81,87,76,0.641,32.5,33.4,31.7,2.368,2.6,149,27,4.0,0.00010,0.00018,54.4,55.2,19,0,.,.,12.58,0.00,0.00
15min,AgWx,beryljct,423,28APR2020:06:15:00,40.6,12.78,36.4,36.6,37.2,37.9,36.6,86,88,83,0.610,33.3,34.3,32.0,0,0.4,181,24,2.3,0.00002,0.00003,54.3,55.2,19,0,.,.,12.58,0.00,0.00
15min,AgWx,beryljct,423,28APR2020:06:30:00,39.9,12.79,39.1,38.4,37.8,38.6,36.5,83,85,80,0.647,33.1,33.7,31.9,2.17,0.3,251,23,2.5,0.00002,0.00003,54.1,55.1,19,0,.,.,12.58,0.00,0.00
15min,AgWx,beryljct,423,28APR2020:06:45:00,39.6,12.77,39.8,38.1,38.8,39.8,38.0,79,82,76,0.608,32.9,33.6,31.3,1.71,2.2,321,14,2.9,0.00010,0.00017,53.9,55.0,19,2,.,.,12.58,0.00,0.00
15min,AgWx,beryljct,423,28APR2020:07:00:00,39.4,12.79,40.4,39.0,38.7,39.6,37.4,79,81,76,0.620,32.7,33.7,31.1,0,1.1,323,21,2.6,0.00012,0.00016,53.8,55.0,19,13,.,.,12.58,0.00,0.00
15min,AgWx,beryljct,423,28APR2020:07:15:00,39.7,12.82,46.1,43.4,41.7,43.8,39.1,69,77,63,0.606,32.3,34.0,31.3,1.951,1.1,346,47,3.0,0.00033,0.00040,53.6,54.9,19,50,.,.,12.58,0.00,0.00
15min,AgWx,beryljct,423,28APR2020:07:30:00,40.9,12.85,46.6,46.6,46.0,47.6,43.7,59,63,54,0.638,32.3,33.4,31.5,3.793,2.7,326,20,6.6,0.00064,0.00085,53.4,54.8,20,81,.,.,12.58,0.00,0.00
15min,AgWx,beryljct,423,28APR2020:07:45:00,43.0,12.86,48.5,48.3,47.7,48.5,46.5,58,60,55,0.682,33.5,34.8,32.6,1.82,2.9,331,15,4.4,0.00085,0.00110,53.3,54.8,19,126,.,.,12.57,0.00,0.00
15min,AgWx,beryljct,423,28APR2020:08:00:00,45.6,12.87,49.7,49.8,49.2,49.8,48.3,57,61,53,0.692,34.5,35.7,32.8,0.811,1.3,340,17,2.8,0.00093,0.00109,53.1,54.7,19,164,.,.,12.58,0.00,0.00
15min,AgWx,beryljct,423,28APR2020:08:15:00,48.1,12.91,51.2,50.9,50.1,50.9,49.6,55,59,52,0.726,34.5,36.9,33.2,1.841,2.3,327,20,3.8,0.00119,0.00143,53.0,54.7,19,199,.,.,12.57,0.00,0.00
15min,AgWx,beryljct,423,28APR2020:08:30:00,50.4,13.01,53.3,53.0,51.7,53.0,50.9,55,57,52,0.720,36.1,37.2,34.9,2.872,2.0,345,35,5.5,0.00147,0.00172,52.9,54.6,19,258,.,.,12.57,0.00,0.00
15min,AgWx,beryljct,423,28APR2020:08:45:00,53.0,13.12,55.3,55.1,54.1,55.1,53.0,51,55,48,0.789,36.4,39.0,34.3,3.858,3.2,32,18,4.6,0.00193,0.00232,52.8,54.5,19,323,.,.,12.57,0.00,0.00
15min,AgWx,beryljct,423,28APR2020:09:00:00,55.5,13.36,56.4,56.5,55.7,56.5,55.1,50,52,48,0.775,37.2,38.5,35.9,3.047,3.0,35,14,5.0,0.00223,0.00264,52.7,54.5,18,371,.,.,12.57,0.00,0.00
15min,AgWx,beryljct,423,28APR2020:09:15:00,57.8,13.66,57.3,57.5,57.0,57.6,56.5,47,51,44,0.742,36.9,38.8,35.2,4.56,3.6,21,18,5.4,0.00262,0.00312,52.7,54.4,19,429,.,.,12.56,0.00,0.00
15min,AgWx,beryljct,423,28APR2020:09:30:00,59.7,14.27,59.2,59.3,58.5,59.3,57.5,47,53,44,0.792,38.3,41.6,35.9,10.02,6.7,39,20,11.0,0.00308,0.00386,52.7,54.3,18,476,.,.,12.56,0.00,0.00
15min,AgWx,beryljct,423,28APR2020:09:45:00,61.3,14.27,60.6,60.5,59.8,60.5,59.3,45,47,42,0.830,38.2,39.8,37.1,11,9.5,39,11,12.4,0.00361,0.00466,52.7,54.3,18,542,.,.,12.56,0.00,0.00
15min,AgWx,beryljct,423,28APR2020:10:00:00,62.7,14.21,61.9,61.6,61.2,62.1,60.5,44,48,42,0.839,39.3,42.2,37.4,6.84,9.5,40,13,12.3,0.00385,0.00495,52.7,54.2,18,569,.,.,12.56,0.00,0.00
15min,AgWx,beryljct,423,28APR2020:10:15:00,64.1,14.25,62.4,62.4,62.3,62.8,61.7,43,49,40,0.789,39.5,42.6,37.5,8.55,10.2,46,13,14.6,0.00414,0.00533,52.7,54.1,18,604,.,.,12.55,0.00,0.00
15min,AgWx,beryljct,423,28APR2020:10:30:00,65.3,14.15,63.9,63.8,63.3,64.1,62.4,41,44,38,0.778,39.4,41.1,37.6,9.05,10.0,47,15,14.0,0.00450,0.00575,52.8,54.1,18,659,.,.,12.55,0.00,0.00
15min,AgWx,beryljct,423,28APR2020:10:45:00,66.5,14.2,64.7,64.8,64.3,64.8,63.8,40,44,38,0.878,39.5,42.1,37.9,10.06,11.1,51,12,15.1,0.00487,0.00626,53.0,54.0,18,707,.,.,12.55,0.00,0.00
15min,AgWx,beryljct,423,28APR2020:11:00:00,67.5,14.16,64.9,65.4,65.1,65.6,64.7,39,43,37,0.823,39.3,42.6,37.7,12.67,12.0,48,13,16.9,0.00524,0.00676,53.2,54.0,18,757,.,.,12.55,0.00,0.00
15min,AgWx,beryljct,423,28APR2020:11:15:00,68.4,14.12,65.8,65.8,65.7,66.3,65.2,38,41,35,0.763,39.6,42.0,37.6,10.46,11.9,51,14,16.4,0.00546,0.00702,53.4,54.0,18,791,.,.,12.54,0.00,0.00
15min,AgWx,beryljct,423,28APR2020:11:30:00,69.2,14.13,67.1,66.7,66.4,66.7,65.8,37,41,34,0.877,39.6,41.8,36.7,8.79,11.7,62,14,16.6,0.00567,0.00724,53.6,53.9,18,818,.,.,12.54,0.00,0.00
15min,AgWx,beryljct,423,28APR2020:11:45:00,69.9,13.7,66.8,66.9,67.0,67.6,66.7,38,42,35,0.845,40.6,43.6,37.9,11.42,11.2,47,12,16.6,0.00577,0.00732,53.9,53.9,18,833,.,.,12.54,0.00,0.00
15min,AgWx,beryljct,423,28APR2020:12:00:00,70.1,13.68,66.9,67.0,66.5,67.0,66.1,37,39,35,0.822,39.5,40.8,38.0,12.56,10.8,44,13,15.3,0.00504,0.00652,54.2,53.9,18,679,.,.,12.54,0.00,0.00
15min,AgWx,beryljct,423,28APR2020:12:15:00,70.5,13.71,67.2,67.4,67.7,68.3,66.8,36,40,32,0.794,39.8,42.8,36.3,8.9,11.2,36,15,17.3,0.00597,0.00758,54.6,53.9,18,850,.,.,12.54,0.00,0.00
15min,AgWx,beryljct,423,28APR2020:12:30:00,71.0,13.66,67.8,68.1,68.0,68.6,67.4,36,39,34,0.819,40.1,42.4,38.1,7.958,11.9,44,13,17.2,0.00615,0.00784,54.9,53.8,18,877,.,.,12.54,0.00,0.00
15min,AgWx,beryljct,423,28APR2020:12:45:00,71.7,13.65,69.7,68.9,68.5,69.0,68.0,36,40,33,0.866,40.5,43.4,38.1,7.717,11.1,51,12,16.1,0.00639,0.00803,55.3,53.9,18,924,.,.,12.54,0.00,0.00
15min,AgWx,beryljct,423,28APR2020:13:00:00,72.4,13.62,67.9,68.8,69.2,70.0,68.7,35,38,30,0.845,40.5,42.7,36.8,8.31,10.9,47,21,15.5,0.00646,0.00812,55.7,53.9,18,923,.,.,12.53,0.00,0.00
15min,AgWx,beryljct,423,28APR2020:13:15:00,73.0,13.64,69.3,69.5,69.6,70.0,68.8,35,39,32,0.893,40.9,43.6,38.4,8.13,11.1,59,12,18.5,0.00658,0.00827,56.2,53.9,18,939,.,.,12.53,0.00,0.00
15min,AgWx,beryljct,423,28APR2020:13:30:00,73.3,13.63,69.3,70.3,69.9,71.0,69.4,36,41,31,0.860,41.4,45.6,37.6,11.82,9.6,52,19,15.4,0.00628,0.00782,56.6,53.9,18,892,.,.,12.53,0.00,0.00
15min,AgWx,beryljct,423,28APR2020:13:45:00,73.8,13.64,70.2,71.3,70.4,71.3,70.0,34,37,31,0.936,40.6,43.2,38.3,12.54,10.8,52,18,18.5,0.00690,0.00863,57.0,53.9,18,985,.,.,12.53,0.00,0.00
15min,AgWx,beryljct,423,28APR2020:14:00:00,74.4,13.61,70.5,71.2,70.9,71.4,70.4,32,35,26,0.887,39.5,41.8,34.6,15.48,9.6,51,21,15.5,0.00668,0.00833,57.5,53.9,18,942,.,.,12.54,0.00,0.00
15min,AgWx,beryljct,423,28APR2020:14:15:00,74.9,13.61,71.3,71.8,71.1,71.8,70.5,32,37,29,0.980,39.8,44.1,36.9,9.01,9.6,54,19,15.4,0.00677,0.00844,58.0,53.9,18,954,.,.,12.53,0.00,0.00
15min,AgWx,beryljct,423,28APR2020:14:30:00,75.4,13.6,73.4,71.3,71.9,72.7,71.2,32,36,27,0.784,40.2,43.4,35.6,6.467,10.3,49,24,15.5,0.00685,0.00861,58.5,54.0,18,948,.,.,12.53,0.00,0.00
15min,AgWx,beryljct,423,28APR2020:14:45:00,76.0,13.59,72.1,72.4,72.1,72.5,71.5,31,36,26,0.853,40.1,44.0,34.7,11.55,9.1,60,23,13.9,0.00673,0.00835,58.9,54.0,18,936,.,.,12.53,0.00,0.00
15min,AgWx,beryljct,423,28APR2020:15:00:00,76.6,13.54,72.4,72.5,72.4,73.1,71.8,31,36,26,0.954,40.4,44.1,35.3,8.18,8.7,50,22,13.5,0.00662,0.00821,59.4,54.1,18,916,.,.,12.53,0.00,0.00
15min,AgWx,beryljct,423,28APR2020:15:15:00,77.1,13.59,72.9,72.6,72.5,73.2,71.9,32,38,27,0.867,40.7,45.2,36.8,5.217,7.5,56,27,12.7,0.00640,0.00784,59.9,54.1,18,893,.,.,12.53,0.00,0.00
15min,AgWx,beryljct,423,28APR2020:15:30:00,77.7,13.59,72.9,72.7,72.8,73.2,72.3,33,36,28,0.990,41.7,44.8,37.9,4.319,7.8,62,19,14.3,0.00624,0.00770,60.3,54.2,18,862,.,.,12.53,0.00,0.00
15min,AgWx,beryljct,423,28APR2020:15:45:00,78.3,13.5,73.0,72.5,73.0,73.7,72.5,34,41,29,0.855,42.9,48.4,38.5,4.867,7.1,77,21,13.7,0.00601,0.00736,60.8,54.3,18,834,.,.,12.53,0.00,0.00
15min,AgWx,beryljct,423,28APR2020:16:00:00,78.4,13.56,73.7,73.3,72.9,73.5,72.4,32,37,26,0.945,40.9,45.6,36.6,11.42,8.8,67,31,19.8,0.00597,0.00753,61.2,54.4,18,803,.,.,12.53,0.00,0.00
15min,AgWx,beryljct,423,28APR2020:16:15:00,78.7,13.48,73.4,73.2,73.5,74.2,72.9,32,37,26,0.836,41.7,45.5,37.0,5.963,9.3,60,26,16.6,0.00564,0.00725,61.6,54.4,18,737,.,.,12.53,0.00,0.00
15min,AgWx,beryljct,423,28APR2020:16:30:00,78.8,13.44,73.3,73.2,73.2,73.7,73.0,31,37,27,0.965,41.1,45.2,36.8,6.642,8.8,77,24,14.7,0.00548,0.00702,62.0,54.5,18,720,.,.,12.54,0.00,0.00
15min,AgWx,beryljct,423,28APR2020:16:45:00,78.8,13.5,73.0,73.2,73.2,73.8,72.8,33,38,29,0.957,42.8,46.5,39.2,11.18,9.2,76,16,13.6,0.00506,0.00659,62.4,54.6,17,653,.,.,12.53,0.00,0.00
15min,AgWx,beryljct,423,28APR2020:17:00:00,78.7,13.5,73.1,73.3,73.3,73.7,72.9,32,37,28,0.867,41.8,45.6,38.2,7.541,8.7,77,13,13.8,0.00494,0.00643,62.7,54.7,18,635,.,.,12.53,0.00,0.00
15min,AgWx,beryljct,423,28APR2020:17:15:00,78.7,13.44,73.4,73.4,73.5,73.9,73.2,31,35,28,0.866,41.3,44.6,38.0,9.58,7.8,63,16,11.4,0.00455,0.00593,62.9,54.8,18,586,.,.,12.54,0.00,0.00
15min,AgWx,beryljct,423,28APR2020:17:30:00,78.7,13.44,74.9,73.6,73.2,73.6,72.9,32,35,28,0.792,41.4,44.5,38.5,7.256,8.3,71,21,12.6,0.00427,0.00568,63.1,54.9,18,534,.,.,12.54,0.00,0.00
15min,AgWx,beryljct,423,28APR2020:17:45:00,78.4,13.51,73.1,72.4,73.1,73.9,72.4,32,37,28,0.886,41.9,45.0,38.8,10.08,8.4,65,21,12.2,0.00388,0.00526,63.3,55.0,18,474,.,.,12.54,0.00,0.00
15min,AgWx,beryljct,423,28APR2020:18:00:00,77.7,13.47,72.3,72.3,72.5,72.7,72.3,32,37,30,0.899,41.3,44.9,39.1,6.401,8.6,65,13,15.5,0.00344,0.00482,63.4,55.1,17,402,.,.,12.54,0.00,0.00
15min,AgWx,beryljct,423,28APR2020:18:15:00,76.9,13.5,72.2,71.8,72.0,72.5,71.4,33,39,30,0.840,41.2,45.9,39.1,11.68,8.3,58,10,11.7,0.00276,0.00403,63.5,55.2,17,306,.,.,12.54,0.00,0.00
15min,AgWx,beryljct,423,28APR2020:18:30:00,76.1,13.51,71.5,71.5,71.8,72.4,71.5,33,37,30,0.913,41.5,44.1,39.3,8.46,8.2,74,12,14.1,0.00297,0.00425,63.6,55.3,18,344,.,.,12.54,0.00,0.00
15min,AgWx,beryljct,423,28APR2020:18:45:00,75.6,13.54,71.7,71.7,71.8,72.1,71.5,32,34,29,0.823,40.4,41.9,38.5,12.34,9.9,65,11,13.5,0.00297,0.00444,63.6,55.4,18,304,.,.,12.54,0.00,0.00
15min,AgWx,beryljct,423,28APR2020:19:00:00,75.0,13.28,71.2,71.4,71.5,71.7,71.2,31,34,29,0.827,39.6,41.3,38.0,12.54,10.5,67,11,15.2,0.00275,0.00428,63.6,55.5,17,252,.,.,12.54,0.00,0.00
15min,AgWx,beryljct,423,28APR2020:19:15:00,74.3,13.16,71.5,71.3,71.0,71.5,70.7,31,33,29,0.770,39.1,40.4,37.5,11.16,9.8,61,9.0,12.8,0.00234,0.00377,63.4,55.5,18,202,.,.,12.54,0.00,0.00
15min,AgWx,beryljct,423,28APR2020:19:30:00,73.5,13.14,68.9,69.7,70.1,71.3,69.4,32,35,29,0.821,39.2,40.6,37.8,5.261,8.7,58,7.5,12.2,0.00113,0.00146,63.3,55.6,18,155,.,.,12.54,0.00,0.00
15min,AgWx,beryljct,423,28APR2020:19:45:00,72.4,13.13,67.3,68.1,68.7,69.8,67.7,34,37,32,0.813,39.3,40.4,38.2,6.204,7.6,62,8.2,11.6,0.00091,0.00121,63.1,55.7,18,111,.,.,12.54,0.00,0.00
15min,AgWx,beryljct,423,28APR2020:20:00:00,71.0,13.1,65.8,66.1,67.3,68.0,66.1,35,37,33,0.813,38.6,39.7,37.4,6.489,7.5,61,6.9,12.0,0.00078,0.00104,62.9,55.8,17,70,.,.,12.54,0.00,0.00
15min,AgWx,beryljct,423,28APR2020:20:15:00,69.2,13.08,63.4,64.6,65.7,66.3,64.6,37,38,36,0.797,38.5,39.1,38.1,4.932,6.9,55,7.9,9.1,0.00060,0.00081,62.7,55.9,18,28,.,.,12.55,0.00,0.00
15min,AgWx,beryljct,423,28APR2020:20:30:00,67.1,13.05,63.2,63.4,63.6,64.5,62.7,39,41,39,0.770,38.4,38.9,37.8,0.833,3.3,66,14,5.6,0.00016,0.00027,62.5,55.9,18,6,.,.,12.55,0.00,0.00
15min,AgWx,beryljct,423,28APR2020:20:45:00,65.0,13.05,64.3,64.2,63.4,64.3,62.5,38,42,36,0.734,37.7,39.0,36.6,1.447,0.6,334,53,1.8,-0.00031,-0.00045,62.3,56.0,17,1,.,.,12.55,0.00,0.00
15min,AgWx,beryljct,423,28APR2020:21:00:00,63.5,13.03,65.1,64.7,63.9,64.7,61.7,36,41,34,0.706,36.4,38.3,35.6,2.916,2.0,317,12,2.9,-0.00004,-0.00001,62.0,56.1,18,0,.,.,12.55,0.00,0.00
15min,AgWx,beryljct,423,28APR2020:21:15:00,62.4,13.03,55.6,60.0,62.2,65.0,59.6,39,45,33,0.780,36.8,38.2,35.3,0,2.1,339,13,3.4,-0.00003,0.00001,61.8,56.1,18,0,.,.,12.55,0.00,0.00
15min,AgWx,beryljct,423,28APR2020:21:30:00,61.0,13.01,63.1,62.3,59.4,62.3,57.6,45,53,36,0.698,37.9,40.5,35.3,2.411,1.0,328,9.6,2.4,-0.00023,-0.00031,61.5,56.2,17,0,.,.,12.55,0.00,0.00
15min,AgWx,beryljct,423,28APR2020:21:45:00,60.2,13.01,60.7,61.0,62.2,62.7,61.0,37,39,36,0.713,35.5,36.1,35.1,2.653,2.8,348,18,4.1,0.00008,0.00016,61.2,56.2,18,0,.,.,12.55,0.00,0.00
15min,AgWx,beryljct,423,28APR2020:22:00:00,59.6,13,55.9,57.0,59.9,61.4,57.0,41,46,38,0.736,36.0,36.7,35.4,4.187,3.5,324,8.8,4.8,0.00014,0.00024,61.0,56.3,18,0,.,.,12.56,0.01,0.00
15min,AgWx,beryljct,423,28APR2020:22:15:00,59.0,13,55.6,57.5,59.4,60.9,57.0,42,46,39,0.724,36.0,36.8,35.5,4.034,4.7,352,8.4,7.0,0.00025,0.00038,60.7,56.3,17,0,.,.,12.56,0.00,0.00
15min,AgWx,beryljct,423,28APR2020:22:30:00,58.3,12.98,60.0,59.6,58.2,59.6,56.3,43,47,40,0.700,35.8,36.4,35.4,3.157,3.1,309,11,4.5,0.00008,0.00016,60.5,56.3,18,0,.,.,12.56,0.00,0.00
15min,AgWx,beryljct,423,28APR2020:22:45:00,57.7,12.97,56.0,58.2,59.4,60.3,57.7,41,45,39,0.721,35.6,36.6,35.2,0.329,2.0,299,5.2,3.6,-0.00004,-0.00002,60.2,56.3,17,0,.,.,12.56,0.00,0.00
15min,AgWx,beryljct,423,28APR2020:23:00:00,56.8,12.97,58.8,58.0,57.1,58.3,55.6,46,51,43,0.699,36.4,37.8,35.4,2.674,1.5,301,16,2.8,-0.00014,-0.00017,59.9,56.4,18,0,.,.,12.56,0.00,0.00
15min,AgWx,beryljct,423,28APR2020:23:15:00,56.5,12.96,51.7,55.3,58.3,59.1,55.3,42,50,40,0.742,35.2,36.9,34.8,3.398,4.0,298,10,5.2,0.00018,0.00028,59.7,56.4,18,0,.,.,12.56,0.00,0.00
15min,AgWx,beryljct,423,28APR2020:23:30:00,55.8,12.95,52.7,53.5,54.4,56.1,52.7,52,55,47,0.747,36.9,37.3,36.1,4.034,4.2,305,6.4,5.7,0.00012,0.00019,59.4,56.4,18,0,.,.,12.56,0.00,0.00
15min,AgWx,bigpiney,439,28APR2020:00:00:00,41.8,12.68,41.9,41.8,42.3,43.0,41.8,60,61,58,0.546,29.2,29.4,29.0,10.54,10.9,281,7.3,13.0,0.00028,0.00034,35.5,31.9,19,0,0,0.0,6.28,0.00,0.00
15min,AgWx,bigpiney,439,28APR2020:00:15:00,42.2,12.68,41.1,41.3,41.6,41.9,41.1,62,63,61,0.547,29.4,29.5,29.2,9.29,10.4,283,5.2,12.3,0.00026,0.00031,35.4,31.9,19,0,0,0.0,6.28,0.00,0.00
15min,AgWx,bigpiney,439,28APR2020:00:30:00,42.3,12.66,39.6,39.6,40.5,41.3,39.6,64,65,62,0.536,29.1,29.5,28.8,7.914,8.2,288,4.7,9.8,0.00020,0.00025,35.4,31.9,19,0,0,0.0,6.28,0.00,0.00
15min,AgWx,bigpiney,439,28APR2020:00:45:00,42.0,12.67,39.9,39.5,39.7,40.1,39.4,65,65,64,0.531,28.7,28.9,28.5,7.541,7.7,292,6.7,8.6,0.00018,0.00023,35.3,31.9,19,0,0,0.0,6.28,0.00,0.00
15min,AgWx,bigpiney,439,28APR2020:01:00:00,41.5,12.66,40.3,38.9,39.0,39.6,38.1,65,66,64,0.522,28.2,28.6,27.7,7.432,5.9,283,8.1,7.7,0.00014,0.00018,35.2,31.9,19,0,0,0.0,6.28,0.00,0.00
15min,AgWx,bigpiney,439,28APR2020:01:15:00,40.8,12.66,39.0,38.8,38.6,39.2,37.9,64,66,62,0.503,27.6,28.2,27.2,5.261,5.5,297,9.7,7.4,0.00013,0.00018,35.2,31.9,19,0,0,0.0,6.28,0.00,0.00
15min,AgWx,bigpiney,439,28APR2020:01:30:00,40.2,12.65,36.6,35.7,36.7,38.9,35.1,68,71,63,0.499,27.0,27.4,26.4,3.508,4.7,252,11,6.3,0.00009,0.00013,35.1,31.9,19,0,0,0.0,6.28,0.00,0.00
15min,AgWx,bigpiney,439,28APR2020:01:45:00,39.4,12.64,35.6,35.4,36.2,37.1,35.4,68,71,66,0.492,26.6,27.3,26.2,6.73,5.8,243,11,7.8,0.00011,0.00015,35.0,32.0,19,0,0,0.0,6.28,0.00,0.00
15min,AgWx,bigpiney,439,28APR2020:02:00:00,38.7,12.63,36.7,37.1,35.7,37.2,35.3,67,71,61,0.459,26.0,26.8,25.0,4.472,5.3,255,12,7.5,0.00010,0.00014,35.0,31.9,19,0,0,0.0,6.28,0.00,0.00
15min,AgWx,bigpiney,439,28APR2020:02:15:00,38.2,12.61,38.6,38.2,37.8,39.3,36.6,58,63,54,0.440,24.4,25.1,23.7,7.607,6.1,279,9.9,7.9,0.00018,0.00023,34.9,31.9,19,0,0,0.0,6.28,0.00,0.00
15min,AgWx,bigpiney,439,28APR2020:02:30:00,38.3,12.61,41.2,41.6,40.8,42.5,38.2,51,57,46,0.440,24.0,24.9,23.1,8.75,11.6,298,12,19.0,0.00035,0.00041,34.8,31.9,19,0,0,0.0,6.28,0.00,0.00
15min,AgWx,bigpiney,439,28APR2020:02:45:00,38.9,12.61,39.5,39.6,40.3,41.6,39.6,53,55,49,0.456,24.4,24.9,23.7,7.782,8.4,297,6.9,13.0,0.00028,0.00034,34.7,31.9,19,0,0,0.0,6.28,0.00,0.00
15min,AgWx,bigpiney,439,28APR2020:03:00:00,39.2,12.6,36.6,37.8,38.9,39.6,37.8,57,59,55,0.452,25.0,25.2,24.7,3.31,6.7,305,12,8.7,0.00020,0.00026,34.7,31.9,19,0,0,0.0,6.28,0.00,0.00
15min,AgWx,bigpiney,439,28APR2020:03:15:00,39.0,12.59,38.4,35.4,35.3,37.7,34.0,64,67,59,0.445,24.3,24.6,23.9,6.555,4.0,360,21,8.9,0.00008,0.00012,34.6,31.9,19,0,0,0.0,6.28,0.00,0.00
15min,AgWx,bigpiney,439,28APR2020:03:30:00,38.5,12.58,36.8,36.8,36.7,37.4,35.7,60,63,58,0.441,23.9,24.4,23.5,4.143,5.1,2.6,17,9.0,0.00014,0.00019,34.5,31.9,19,0,0,0.0,6.28,0.00,0.00
15min,AgWx,bigpiney,439,28APR2020:03:45:00,38.1,12.57,35.8,35.2,35.9,37.5,34.7,62,66,59,0.453,24.3,24.7,24.0,5.042,4.5,323,14,7.5,0.00011,0.00015,34.5,31.9,19,0,0,0.0,6.28,0.00,0.00
15min,AgWx,bigpiney,439,28APR2020:04:00:00,37.6,12.56,36.5,36.4,35.8,36.5,35.1,64,66,63,0.461,25.0,25.4,24.6,5.809,5.6,325,13,7.3,0.00012,0.00016,34.4,31.8,19,0,0,0.0,6.28,0.00,0.00
15min,AgWx,bigpiney,439,28APR2020:04:15:00,37.3,12.55,34.3,34.5,35.4,36.4,34.5,67,70,63,0.470,25.4,25.9,24.8,8.4,6.8,300,6.9,8.8,0.00013,0.00017,34.3,31.9,19,0,0,0.0,6.28,0.00,0.00
15min,AgWx,bigpiney,439,28APR2020:04:30:00,37.0,12.54,38.1,37.8,35.9,37.8,34.4,67,70,64,0.492,26.2,26.7,25.6,10.06,10.2,292,5.0,12.0,0.00017,0.00021,34.3,31.9,19,0,0,0.0,6.28,0.00,0.00
15min,AgWx,bigpiney,439,28APR2020:04:45:00,37.3,12.54,38.5,38.5,38.2,38.5,37.8,63,64,61,0.485,26.5,26.7,26.3,9.47,10.5,292,5.7,13.8,0.00022,0.00027,34.2,31.9,19,0,0,0.0,6.28,0.00,0.00
15min,AgWx,bigpiney,439,28APR2020:05:00:00,37.7,12.52,38.4,38.3,38.3,38.4,38.0,62,63,61,0.480,26.3,26.5,26.1,8.22,9.5,292,5.6,11.9,0.00022,0.00026,34.2,31.9,19,0,0,0.0,6.28,0.00,0.00
15min,AgWx,bigpiney,439,28APR2020:05:15:00,38.0,12.51,32.9,35.3,37.4,38.3,35.3,63,65,61,0.452,25.9,26.2,24.6,4.275,6.0,312,22,8.6,0.00015,0.00019,34.1,32.0,19,0,0,0.0,6.28,0.00,0.00
15min,AgWx,bigpiney,439,28APR2020:05:30:00,37.7,12.5,34.0,33.7,34.3,36.1,33.3,69,72,65,0.467,25.3,26.2,24.3,5.086,4.4,25,16,7.3,0.00007,0.00010,34.0,31.9,19,0,0,0.0,6.28,0.00,0.00
15min,AgWx,bigpiney,439,28APR2020:05:45:00,37.0,12.49,35.0,34.0,33.7,34.2,33.1,71,72,69,0.464,25.3,25.5,24.9,5.196,3.9,351,35,5.2,0.00005,0.00007,34.0,31.9,19,0,0,0.0,6.28,0.00,0.00
15min,AgWx,bigpiney,439,28APR2020:06:00:00,36.3,12.48,32.5,32.3,33.8,35.0,32.3,70,73,67,0.451,24.9,25.5,24.3,6.511,6.1,288,5.0,6.7,0.00010,0.00013,33.9,31.9,19,0,0,0.0,6.28,0.00,0.00
15min,AgWx,bigpiney,439,28APR2020:06:15:00,35.7,12.47,34.6,34.5,32.7,34.7,31.5,73,75,68,0.463,25.1,25.6,24.7,7.322,6.8,282,7.1,8.4,0.00009,0.00012,33.8,32.0,19,2,0,0.0,6.28,0.00,0.00
15min,AgWx,bigpiney,439,28APR2020:06:30:00,35.4,12.48,36.1,35.5,35.1,35.5,34.4,67,69,66,0.468,25.4,25.5,25.2,9.03,8.5,296,6.2,9.7,0.00016,0.00019,33.8,31.9,19,10,0,0.0,6.28,0.00,0.00
15min,AgWx,bigpiney,439,28APR2020:06:45:00,35.7,12.52,36.6,36.1,35.6,36.1,35.2,67,68,66,0.474,25.6,25.8,25.4,8.68,7.9,301,7.6,9.9,0.00017,0.00043,33.7,31.9,19,48,0,0.0,6.28,0.00,0.00
15min,AgWx,bigpiney,439,28APR2020:07:00:00,36.2,12.54,37.7,37.4,36.9,37.4,36.1,65,66,64,0.492,26.2,26.7,25.7,6.445,7.6,311,9.2,10.1,0.00034,0.00063,33.7,31.9,19,90,0,0.0,6.28,0.00,0.00
15min,AgWx,bigpiney,439,28APR2020:07:15:00,37.2,12.55,38.0,37.5,37.3,37.6,37.1,67,69,65,0.519,27.4,28.1,26.7,4.932,5.7,345,14,9.0,0.00038,0.00061,33.6,31.9,19,124,0,0.0,6.28,0.00,0.00
15min,AgWx,bigpiney,439,28APR2020:07:30:00,38.4,12.57,39.9,39.5,38.7,39.5,37.6,66,68,63,0.523,28.2,28.4,27.9,6.379,5.8,6.2,8.4,8.2,0.00056,0.00082,33.6,31.9,19,160,0,0.0,6.28,0.00,0.00
15min,AgWx,bigpiney,439,28APR2020:07:45:00,39.6,12.6,41.2,41.1,40.3,41.1,39.5,61,64,57,0.498,27.8,28.3,27.0,11.31,8.9,356,9.6,13.8,0.00089,0.00131,33.5,31.9,19,201,0,0.0,6.28,0.00,0.00
15min,AgWx,bigpiney,439,28APR2020:08:00:00,41.0,12.72,42.1,42.0,41.5,42.0,41.1,56,58,53,0.484,27.2,28.3,26.3,9.43,10.6,340,6.5,12.8,0.00118,0.00173,33.5,31.9,19,242,0,0.0,6.28,0.00,0.00
15min,AgWx,bigpiney,439,28APR2020:08:15:00,42.3,13.1,43.3,43.2,42.7,43.3,41.9,53,57,49,0.481,27.0,28.5,25.5,9.97,9.2,344,12,11.8,0.00148,0.00203,33.4,31.9,19,310,0,0.0,6.28,0.00,0.00